| time (UTC) | temp F | wind direction | speed MPH | gust MPH | rain 1hr in | rain 24hr in | rain mn in | humidity % | barometer mb |
| 20260906163056 | 64 | 286 | 0.0 | 10.0 | 0.00 | 0.00 | 0.00 | 63 | 1022.8 |
| 20260906161547 | 65 | 277 | 2.0 | 8.0 | 0.00 | 0.00 | 0.00 | 63 | 1022.7 |
| 20260906160014 | 65 | 228 | 2.0 | 8.0 | 0.00 | 0.00 | 0.00 | 62 | 1022.8 |
| 20260906154619 | 67 | 287 | 3.0 | 12.0 | 0.00 | 0.07 | 0.00 | 59 | 1022.8 |
| 20260906153105 | 68 | 244 | 1.0 | 14.0 | 0.00 | 0.07 | 0.00 | 58 | 1022.7 |
| 20260906151544 | 68 | 311 | 2.0 | 9.0 | 0.00 | 0.07 | 0.00 | 56 | 1022.6 |
| 20260906150025 | 68 | 265 | 4.0 | 10.0 | 0.00 | 0.07 | 0.00 | 57 | 1022.6 |
| 20260906144543 | 67 | 225 | 3.0 | 10.0 | 0.00 | 0.07 | 0.00 | 59 | 1022.6 |
| 20260906143143 | 67 | 201 | 4.0 | 11.0 | 0.00 | 0.07 | 0.00 | 57 | 1022.7 |
| 20260906141544 | 67 | 274 | 3.0 | 15.0 | 0.00 | 0.07 | 0.00 | 57 | 1022.7 |
| 20260906140038 | 68 | 276 | 3.0 | 12.0 | 0.00 | 0.07 | 0.00 | 56 | 1022.5 |
| 20260906134534 | 67 | 234 | 2.0 | 15.0 | 0.00 | 0.07 | 0.00 | 58 | 1022.6 |
| 20260906133018 | 66 | 198 | 3.0 | 10.0 | 0.00 | 0.07 | 0.00 | 58 | 1022.5 |
| 20260906131616 | 67 | 243 | 1.0 | 15.0 | 0.00 | 0.07 | 0.00 | 60 | 1022.5 |
| 20260906130041 | 66 | 252 | 3.0 | 12.0 | 0.00 | 0.07 | 0.00 | 59 | 1022.7 |
| 20260906124519 | 67 | 263 | 3.0 | 21.0 | 0.00 | 0.07 | 0.00 | 56 | 1022.6 |
| 20260906123110 | 65 | 348 | 2.0 | 11.0 | 0.00 | 0.07 | 0.00 | 60 | 1022.5 |
| 20260906121519 | 65 | 248 | 2.0 | 14.0 | 0.00 | 0.07 | 0.00 | 57 | 1022.7 |
| 20260906120110 | 66 | 317 | 3.0 | 12.0 | 0.00 | 0.07 | 0.00 | 56 | 1022.6 |
| 20260906114536 | 66 | 223 | 2.0 | 11.0 | 0.00 | 0.08 | 0.00 | 60 | 1022.4 |
| 20260906113135 | 66 | 242 | 4.0 | 17.0 | 0.00 | 0.08 | 0.00 | 61 | 1022.4 |
| 20260906111620 | 65 | 254 | 6.0 | 18.0 | 0.00 | 0.08 | 0.00 | 61 | 1022.2 |
| 20260906110043 | 66 | 218 | 5.0 | 15.0 | 0.00 | 0.08 | 0.00 | 62 | 1022.0 |
| 20260906104516 | 65 | 233 | 4.0 | 11.0 | 0.00 | 0.08 | 0.00 | 64 | 1022.0 |
| 20260906103015 | 66 | 323 | 3.0 | 14.0 | 0.00 | 0.08 | 0.00 | 60 | 1022.0 |
| 20260906101512 | 66 | 317 | 4.0 | 12.0 | 0.00 | 0.08 | 0.00 | 62 | 1021.8 |
| 20260906100010 | 65 | 294 | 2.0 | 11.0 | 0.00 | 0.08 | 0.00 | 63 | 1021.6 |
| 20260906094506 | 64 | 331 | 4.0 | 13.0 | 0.00 | 0.08 | 0.00 | 64 | 1021.5 |
| 20260906093011 | 65 | 341 | 4.0 | 12.0 | 0.00 | 0.08 | 0.00 | 64 | 1021.3 |
| 20260906091603 | 64 | 294 | 3.0 | 15.0 | 0.00 | 0.08 | 0.00 | 65 | 1021.2 |
| 20260906090112 | 63 | 270 | 6.0 | 19.0 | 0.00 | 0.08 | 0.00 | 67 | 1021.1 |
| 20260906084606 | 63 | 324 | 7.0 | 16.0 | 0.00 | 0.09 | 0.00 | 67 | 1021.1 |
| 20260906083053 | 63 | 294 | 5.0 | 18.0 | 0.00 | 0.09 | 0.00 | 68 | 1021.0 |
| 20260906081554 | 63 | 314 | 4.0 | 18.0 | 0.00 | 0.09 | 0.00 | 69 | 1020.8 |
| 20260906080051 | 62 | 206 | 7.0 | 17.0 | 0.00 | 0.09 | 0.00 | 70 | 1020.5 |
| 20260906074546 | 62 | 226 | 7.0 | 16.0 | 0.00 | 0.10 | 0.00 | 71 | 1020.4 |
| 20260906073051 | 61 | 5 | 4.0 | 11.0 | 0.00 | 0.10 | 0.00 | 74 | 1020.2 |
| 20260906071536 | 60 | 15 | 7.0 | 18.0 | 0.00 | 0.10 | 0.00 | 74 | 1020.2 |
| 20260906070039 | 60 | 202 | 2.0 | 10.0 | 0.00 | 0.10 | 0.00 | 75 | 1020.0 |
| 20260906064529 | 59 | 228 | 5.0 | 12.0 | 0.00 | 0.10 | 0.00 | 77 | 1019.9 |
| 20260906063026 | 59 | 255 | 2.0 | 9.0 | 0.00 | 0.10 | 0.00 | 78 | 1019.8 |
| 20260906061521 | 58 | 218 | 4.0 | 12.0 | 0.00 | 0.10 | 0.00 | 79 | 1019.6 |
| 20260906060018 | 57 | 231 | 2.0 | 9.0 | 0.00 | 0.10 | 0.00 | 80 | 1019.4 |
| 20260906054521 | 57 | 209 | 4.0 | 16.0 | 0.00 | 0.10 | 0.00 | 81 | 1019.3 |
| 20260906053012 | 56 | 273 | 3.0 | 8.0 | 0.00 | 0.10 | 0.00 | 82 | 1019.0 |
| 20260906051515 | 55 | 233 | 3.0 | 11.0 | 0.00 | 0.10 | 0.00 | 83 | 1018.9 |
| 20260906050006 | 55 | 232 | 1.0 | 8.0 | 0.00 | 0.10 | 0.00 | 83 | 1018.8 |
| 20260906044504 | 54 | 283 | 2.0 | 8.0 | 0.00 | 0.10 | 0.00 | 83 | 1018.7 |
| 20260906043001 | 54 | 281 | 4.0 | 11.0 | 0.00 | 0.10 | 0.00 | 84 | 1018.5 |
| 20260906041558 | 54 | 285 | 2.0 | 7.0 | 0.00 | 0.10 | 0.00 | 83 | 1018.2 |
| 20260906040113 | 55 | 306 | 3.0 | 12.0 | 0.00 | 0.10 | 0.00 | 83 | 1017.9 |
| 20260906034555 | 55 | 293 | 4.0 | 12.0 | 0.00 | 0.10 | 0.00 | 83 | 1017.8 |
| 20260906033053 | 55 | 277 | 3.0 | 10.0 | 0.00 | 0.10 | 0.00 | 82 | 1017.6 |
| 20260906031550 | 55 | 257 | 2.0 | 9.0 | 0.00 | 0.10 | 0.00 | 82 | 1017.5 |
| 20260906030047 | 55 | 294 | 3.0 | 11.0 | 0.00 | 0.10 | 0.00 | 81 | 1017.4 |
| 20260906024545 | 55 | 246 | 2.0 | 10.0 | 0.00 | 0.10 | 0.00 | 81 | 1017.2 |
| 20260906023058 | 55 | 291 | 2.0 | 8.0 | 0.00 | 0.10 | 0.00 | 81 | 1017.0 |
| 20260906021625 | 55 | 286 | 3.0 | 10.0 | 0.00 | 0.10 | 0.00 | 80 | 1016.8 |
| 20260906020022 | 56 | 304 | 4.0 | 13.0 | 0.00 | 0.10 | 0.00 | 79 | 1016.7 |
| 20260906014526 | 56 | 235 | 2.0 | 15.0 | 0.00 | 0.10 | 0.00 | 79 | 1016.5 |
| 20260906013016 | 56 | 311 | 5.0 | 11.0 | 0.00 | 0.10 | 0.00 | 79 | 1016.4 |
| 20260906011513 | 56 | 314 | 3.0 | 15.0 | 0.00 | 0.10 | 0.00 | 78 | 1016.2 |
| 20260906010009 | 56 | 326 | 2.0 | 14.0 | 0.00 | 0.10 | 0.00 | 78 | 1016.0 |
| 20260906004508 | 56 | 219 | 4.0 | 13.0 | 0.00 | 0.10 | 0.00 | 79 | 1016.0 |
| 20260906003006 | 57 | 220 | 6.0 | 15.0 | 0.00 | 0.10 | 0.00 | 78 | 1015.7 |
| 20260906001504 | 57 | 257 | 3.0 | 14.0 | 0.00 | 0.10 | 0.00 | 78 | 1015.6 |
| 20260906000003 | 57 | 245 | 4.0 | 15.0 | 0.00 | 0.10 | 0.00 | 78 | 1015.5 |
| 20260905234603 | 57 | 238 | 3.0 | 16.0 | 0.00 | 0.10 | 0.00 | 78 | 1015.3 |
| 20260905233059 | 57 | 22 | 4.0 | 14.0 | 0.00 | 0.10 | 0.00 | 78 | 1015.1 |
| 20260905231557 | 57 | 245 | 5.0 | 15.0 | 0.00 | 0.10 | 0.00 | 78 | 1014.9 |
| 20260905230055 | 57 | 304 | 5.0 | 15.0 | 0.00 | 0.10 | 0.00 | 77 | 1014.7 |
| 20260905224603 | 57 | 298 | 4.0 | 13.0 | 0.00 | 0.10 | 0.00 | 77 | 1014.5 |
| 20260905223049 | 57 | 219 | 5.0 | 16.0 | 0.00 | 0.10 | 0.00 | 76 | 1014.2 |
| 20260905221547 | 57 | 318 | 4.0 | 15.0 | 0.00 | 0.10 | 0.00 | 77 | 1014.2 |
| 20260905220044 | 57 | 31 | 6.0 | 19.0 | 0.00 | 0.10 | 0.00 | 76 | 1013.9 |
| 20260905214541 | 57 | 249 | 4.0 | 21.0 | 0.00 | 0.10 | 0.10 | 76 | 1013.7 |
| 20260905213040 | 57 | 192 | 7.0 | 20.0 | 0.00 | 0.10 | 0.10 | 75 | 1013.6 |
| 20260905211537 | 57 | 235 | 3.0 | 12.0 | 0.00 | 0.10 | 0.10 | 76 | 1013.4 |
| 20260905210037 | 57 | 297 | 4.0 | 17.0 | 0.00 | 0.10 | 0.10 | 76 | 1013.2 |
| 20260905204533 | 57 | 5 | 4.0 | 14.0 | 0.00 | 0.10 | 0.10 | 76 | 1013.1 |
| 20260905203030 | 57 | 294 | 4.0 | 16.0 | 0.00 | 0.10 | 0.10 | 76 | 1012.9 |
| 20260905201527 | 57 | 294 | 5.0 | 13.0 | 0.00 | 0.10 | 0.10 | 76 | 1012.8 |
| 20260905200034 | 58 | 309 | 3.0 | 18.0 | 0.00 | 0.10 | 0.10 | 76 | 1012.5 |
| 20260905194525 | 58 | 231 | 5.0 | 18.0 | 0.00 | 0.10 | 0.10 | 76 | 1012.5 |
| 20260905193023 | 58 | 187 | 5.0 | 12.0 | 0.00 | 0.10 | 0.10 | 76 | 1012.5 |
| 20260905191520 | 58 | 294 | 6.0 | 13.0 | 0.00 | 0.10 | 0.10 | 76 | 1012.1 |
| 20260905190039 | 58 | 184 | 7.0 | 15.0 | 0.00 | 0.10 | 0.10 | 76 | 1012.0 |
| 20260905184516 | 58 | 307 | 4.0 | 11.0 | 0.00 | 0.10 | 0.10 | 77 | 1011.9 |
| 20260905183016 | 58 | 232 | 3.0 | 14.0 | 0.00 | 0.10 | 0.10 | 76 | 1011.8 |
| 20260905181517 | 58 | 225 | 5.0 | 14.0 | 0.00 | 0.10 | 0.10 | 76 | 1011.5 |
| 20260905180019 | 59 | 229 | 4.0 | 16.0 | 0.00 | 0.10 | 0.10 | 76 | 1011.4 |
| 20260905174510 | 59 | 40 | 6.0 | 20.0 | 0.00 | 0.18 | 0.10 | 74 | 1011.3 |
| 20260905173008 | 59 | 246 | 3.0 | 13.0 | 0.00 | 0.18 | 0.10 | 75 | 1011.0 |
| 20260905171507 | 59 | 231 | 7.0 | 20.0 | 0.00 | 0.18 | 0.10 | 73 | 1010.9 |
| 20260905170004 | 60 | 225 | 5.0 | 14.0 | 0.00 | 0.18 | 0.10 | 74 | 1010.8 |
| 20260905164503 | 60 | 269 | 5.0 | 11.0 | 0.00 | 0.18 | 0.10 | 74 | 1010.6 |